This is the latest recevied weather packets stored in our database for station/object OK1FET-5. If no packets are shown the sender has not sent any weather packets the latest 10 day(s).
| Time | Temp. | Humidity | Pressure | Rain* | Wind** | Luminosity | Snow |
|---|---|---|---|---|---|---|---|
| 1778070031 | 26.11° C | 54% | 1007.2 hPa | - | - | - | - |
| 1778069736 | 25° C | 53% | 1007.2 hPa | - | - | - | - |
| 1778069440 | 25° C | 55% | 1007.2 hPa | - | - | - | - |
| 1778068848 | 25.56° C | 56% | 1007.2 hPa | - | - | - | - |
| 1778068257 | 25° C | 53% | 1007.2 hPa | - | - | - | - |
| 1778067961 | 24.44° C | 55% | 1007.2 hPa | - | - | - | - |
| 1778067666 | 25° C | 57% | 1007.2 hPa | - | - | - | - |
| 1778067370 | 23.89° C | 54% | 1007.3 hPa | - | - | - | - |
| 1778067075 | 24.44° C | 57% | 1007.4 hPa | - | - | - | - |
| 1778066779 | 23.33° C | 58% | 1007.4 hPa | - | - | - | - |
| 1778066484 | 23.89° C | 57% | 1007.5 hPa | - | - | - | - |
| 1778066188 | 24.44° C | 57% | 1007.4 hPa | - | - | - | - |
| 1778065597 | 23.33° C | 57% | 1007.4 hPa | - | - | - | - |
| 1778065302 | 22.78° C | 57% | 1007.5 hPa | - | - | - | - |
| 1778065007 | 23.33° C | 55% | 1007.4 hPa | - | - | - | - |
| 1778064711 | 23.33° C | 57% | 1007.5 hPa | - | - | - | - |
| 1778064416 | 22.22° C | 59% | 1007.5 hPa | - | - | - | - |
| 1778064120 | 21.67° C | 59% | 1007.5 hPa | - | - | - | - |
| 1778063825 | 21.67° C | 60% | 1007.5 hPa | - | - | - | - |
| 1778063530 | 21.11° C | 60% | 1007.5 hPa | - | - | - | - |
| 1778063235 | 21.67° C | 60% | 1007.5 hPa | - | - | - | - |
| 1778062940 | 21.67° C | 61% | 1007.7 hPa | - | - | - | - |
| 1778062645 | 21.67° C | 61% | 1007.6 hPa | - | - | - | - |
| 1778062349 | 21.11° C | 59% | 1007.6 hPa | - | - | - | - |
| 1778062054 | 21.11° C | 59% | 1007.5 hPa | - | - | - | - |
* Rain since midnight (hover to see other rain measurements)
** Current wind speed in m/s (hover to see current wind gust speed)